Location: Newark
(22.3060°N, 114.2134°E)
Time: 23:20:22
(UTC+00:00)

Explorer 11/Cluster Stage 4 - Pass Details

Date: 03 August 2021
Orbit: 467 x 1256 km, 28.8° (Epoch: 26 September)

Event Time Altitude Azimuth Distance (km) Brightness Sun altitude
Rises 06:18:34 0° 286° (WNW) 4,143 10.6 63.9°
Reaches altitude 10° 06:21:40 10° 283° (WNW) 3,117 10.2 63.2°
Maximum altitude 06:29:14 55° 208° (SSW) 1,266 8.9 61.4°
Drops below altitude 10° 06:35:33 10° 132° (SE) 2,619 9.2 60.0°
Sets 06:37:58 0° 127° (SE) 3,441 9.6 59.4°
